EW0158 Weather Reports


Display with metric or nautical units.
time (UTC)temp
F
wind
direction
speed
MPH
gust
MPH
rain 1hr
in
rain 24hr
in
rain mn
in
humidity
%
barometer
mb
20260504010017 67 180 7.0 12.0 0.00 0.00 0.00 58 1017.5
20260504005017 67 180 6.0 12.0 0.00 0.00 0.00 57 1017.5
20260504004015 68 157 6.0 12.0 0.00 0.00 0.00 54 1017.2
20260504003015 69 180 6.0 10.0 0.00 0.00 0.00 54
20260504002016 69 180 6.0 14.0 0.00 0.00 0.00 53
20260504001015 69 180 6.0 13.0 0.00 0.00 0.00 53
20260504000015 69 180 8.0 14.0 0.00 0.00 0.00 51 1017.4
20260503235015 70 157 5.0 11.0 0.00 0.00 0.00 51 1017.5
20260503234015 70 180 6.0 11.0 0.00 0.00 0.00 49 1018.0
20260503232015 71 180 9.0 15.0 0.00 0.00 0.00 49 1018.2
20260503231015 71 180 10.0 18.0 0.00 0.00 0.00 48 1018.1
20260503230115 71 180 8.0 15.0 0.00 0.00 0.00 48 1018.0
20260503225015 72 180 10.0 18.0 0.00 0.00 0.00 45 1018.0
20260503224015 73 202 10.0 16.0 0.00 0.00 0.00 45 1018.1
20260503223015 73 180 9.0 14.0 0.00 0.00 0.00 46 1018.3
20260503222015 73 202 10.0 17.0 0.00 0.00 0.00 44 1018.4
20260503221115 73 202 10.0 20.0 0.00 0.00 0.00 44 1018.5
20260503220015 74 180 8.0 14.0 0.00 0.00 0.00 45 1018.7
20260503215015 73 202 10.0 16.0 0.00 0.00 0.00 45 1018.6
20260503214015 72 180 7.0 14.0 0.00 0.00 0.00 45 1018.9
20260503212015 73 202 11.0 18.0 0.00 0.00 0.00 45 1019.4
20260503211016 73 180 9.0 18.0 0.00 0.00 0.00 44 1019.6
20260503210015 74 180 10.0 16.0 0.00 0.00 0.00 44 1019.9
20260503205015 73 180 9.0 15.0 0.00 0.00 0.00 47 1020.1
20260503204015 73 180 8.0 15.0 0.00 0.00 0.00 47 1020.2
20260503203115 73 180 11.0 16.0 0.00 0.00 0.00 45 1020.3
20260503202015 73 135 8.0 18.0 0.00 0.00 0.00 47 1020.8
20260503201015 73 180 9.0 16.0 0.00 0.00 0.00 46 1020.9
20260503200015 74 202 8.0 13.0 0.00 0.00 0.00 47 1021.1
20260503195015 73 202 10.0 21.0 0.00 0.00 0.00 46 1021.1
20260503194020 72 202 8.0 16.0 0.00 0.00 0.00 50 1021.6
20260503193015 72 202 8.0 12.0 0.00 0.00 0.00 52 1021.7
20260503192015 71 180 8.0 15.0 0.00 0.00 0.00 49 1021.8
20260503191015 71 180 8.0 15.0 0.00 0.00 0.00 50 1022.0
20260503185015 71 180 10.0 17.0 0.00 0.00 0.00 50 1022.2
20260503184015 71 180 6.0 12.0 0.00 0.00 0.00 51 1022.3
20260503183015 71 180 9.0 16.0 0.00 0.00 0.00 52 1022.7
20260503182015 70 202 11.0 16.0 0.00 0.00 0.00 50 1022.8
20260503181015 70 180 9.0 15.0 0.00 0.00 0.00 52 1022.9
20260503180015 70 202 9.0 17.0 0.00 0.00 0.00 54 1023.2
20260503175018 70 180 8.0 14.0 0.00 0.00 0.00 52 1023.2
20260503174015 69 157 6.0 12.0 0.00 0.00 0.00 52 1023.3
20260503173015 70 180 6.0 13.0 0.00 0.00 0.00 52 1023.6
20260503171015 69 202 8.0 14.0 0.00 0.00 0.00 54 1024.0
20260503131017 55 247 2.0 3.0 0.00 0.00 0.00 81 1023.7
20260503130116 53 247 2.0 3.0 0.00 0.00 0.00 82 1023.7
20260503081017 52 180 3.0 4.0 0.00 0.00 0.00 79 1022.9
20260503072016 54 180 4.0 7.0 0.00 0.00 0.00 75 1023.8
20260503071016 54 180 4.0 7.0 0.00 0.00 0.00 75 1023.8
20260503055016 55 112 2.0 3.0 0.00 0.00 0.00 70 1024.1
20260503054016 56 112 2.0 4.0 0.00 0.00 0.00 70 1023.8
20260503053016 56 112 2.0 3.0 0.00 0.00 0.00 69 1024.0
20260503052016 56 112 3.0 4.0 0.00 0.00 0.00 69 1024.0
20260503051017 57 112 2.0 3.0 0.00 0.00 0.00 68 1023.9
20260503050016 57 112 2.0 3.0 0.00 0.00 0.00 68 1023.8
20260503045015 57 112 2.0 3.0 0.00 0.00 0.00 68 1023.9
20260503043015 57 112 2.0 2.0 0.00 0.00 0.00 69 1023.7
20260503042015 57 112 2.0 2.0 0.00 0.00 0.00 68 1023.7
20260503041015 57 112 1.0 2.0 0.00 0.00 0.00 68 1023.8
20260503040017 58 112 2.0 4.0 0.00 0.00 0.00 67 1023.5
20260503035015 58 112 2.0 3.0 0.00 0.00 0.00 66 1023.5
20260503034016 59 112 3.0 4.0 0.00 0.00 0.00 66 1023.5
20260503033016 59 112 2.0 4.0 0.00 0.00 0.00 65 1023.4
20260503032021 59 112 5.0 6.0 0.00 0.00 0.00 65 1023.1
20260503031016 59 90 3.0 4.0 0.00 0.00 0.00 66 1022.9
20260503030016 58 67 3.0 4.0 0.00 0.00 0.00 67 1022.8
20260503025016 57 67 2.0 4.0 0.00 0.00 0.00 69 1022.9
20260503024016 58 67 2.0 3.0 0.00 0.00 0.00 71 1022.5
20260503023017 58 67 2.0 4.0 0.00 0.00 0.00 70 1022.4
20260503022016 58 67 3.0 5.0 0.00 0.00 0.00 70 1022.2
20260503021016 58 67 4.0 5.0 0.00 0.00 0.00 72 1022.1
20260503020015 58 67 3.0 3.0 0.00 0.00 0.00 71 1021.9
20260503015015 58 67 2.0 3.0 0.00 0.00 0.00 71 1021.9
20260503014016 59 67 3.0 3.0 0.00 0.00 0.00 72 1021.7
20260503012016 61 67 3.0 4.0 0.00 0.00 0.00 69 1021.1
20260503011016 62 67 3.0 4.0 0.00 0.00 0.00 66 1021.2